User: anonymous
Location: Vancouver
(49.2500°N, 123.1330°W)
Time: 05:06:01
(UTC-07:00)
Language:

Iridium 35 - Orbit

View from above orbital plane
View from above orbital plane
View from above satellite
View from above satellite

Ground track
Ground track

The orbit data is extracted from the following two-line orbital elements,

1 24966U 97056B   14231.97972959 -.00000013  00000-0 -11803-4 0  9513
2 24966 086.3962 030.1492 0002151 110.0803 250.0625 14.34216082884588
Epoch (UTC): 19 August 2014 23:30:48
Eccentricity: 0.0002151
inclination: 86.3962°
perigee height: 776 km
apogee height: 779 km
right ascension of ascending node: 30.1492°
argument of perigee: 110.0803°
revolutions per day: 14.34216082
mean anomaly at epoch: 250.0625°
orbit number at epoch: 88458

The dashed part of the orbit path shows where the satellite is in the earth's shadow,  

DLR